This demonstration page uses our WeatherBlox Daily Observations layout. Learn more.

39.01783, -85.05884

Hourly Observations for November 30, 2020

Temp ( °F °C ) Dew Point ( °F °C ) Humidity (%) Winds ( mph kmh ) Pressure ( in mb ) Visibility ( mi km ) Precip ( " mm )
12:52 am 00:52 Cloudy with Light Rain 44 6.7 36 2.2 73 73 N 9 15 29.76 1008 10 16.0934 0.01 0.254
1:52 am 01:52 Cloudy with Rain 43 6.1 36 2.2 76 76 NNW 7 11 29.75 1008 6 9.65604 0.03 0.762
2:29 am 02:29 Cloudy with Light Rain 42 5.6 37 2.8 82 82 NNW 9 15 29.77 1008 8 12.87472 0.06 1.524
2:52 am 02:52 Cloudy with Rain 42 5.6 37 2.8 82 82 NNW 13 20 29.72 1007 7 11.26538 0.1 2.54
3:32 am 03:32 Cloudy with Rain 40 4.4 36 2.2 86 86 N 13 20 29.75 1007 6 9.65604 0.09 2.286
3:52 am 03:52 Cloudy with Rain 40 4.4 35 1.7 83 83 N 17 28 29.71 1006 5 8.0467 0.13 3.302
4:52 am 04:52 Cloudy with Rain 38 3.3 34 1.1 86 86 N 15 24 29.71 1006 5 8.0467 0.1 2.54
5:52 am 05:52 Cloudy with Rain 36 2.2 33 0.6 89 89 NNW 12 19 29.7 1006 6 9.65604 0.08 2.032
6:52 am 06:52 Cloudy with Light Rain 36 2.2 34 1.1 93 93 NNW 12 19 29.69 1006 7 11.26538 0.08 2.032
7:52 am 07:52 Cloudy with Rain 36 2.2 33 0.6 89 89 NW 13 20 29.7 1006 5 8.0467 0.06 1.524
8:52 am 08:52 Cloudy with Light Rain 36 2.2 33 0.6 89 89 NW 12 19 29.7 1006 3 4.82802 0.06 1.524
9:43 am 09:43 Cloudy with Light Rain 36 2.2 33 0.6 89 89 NNW 18 30 29.74 1007 8 12.87472 0.02 0.508
9:52 am 09:52 Cloudy with Light Rain 36 2.2 33 0.6 89 89 NW 20 31 29.7 1006 8 12.87472 0.02 0.508
10:52 am 10:52 Cloudy with Light Snow 35 1.7 32 0 89 89 NW 17 28 29.72 1007 4 6.43736 0.01 0.254
11:14 am 11:14 Cloudy with Light Snow 35 1.7 32 0 89 89 NW 17 28 29.77 1008 2 3.21868 0.01 0.254
11:18 am 11:18 Cloudy with Light Snow 35 1.7 32 0 89 89 NW 18 30 29.77 1008 2.5 4.02335 0.01 0.254
11:50 am 11:50 Cloudy with Light Snow 34 1 30 -1 87 87 NW 18 30 29.77 1008 1.5 2.41401 0.03 0.762
11:52 am 11:52 Cloudy with Light Snow 35 1.7 32 0 89 89 NW 15 24 29.74 1007 1.25 2.011675 0.03 0.762
12:23 pm 12:23 Cloudy with Light Snow 34 1.1 31 -0.6 89 89 NW 16 26 29.77 1008 0.75 1.207005 0.02 0.508
12:52 pm 12:52 Cloudy with Light Snow 34 1.1 32 0 92 92 NW 14 22 29.74 1007 0.75 1.207005 0.03 0.762
1:45 pm 13:45 Cloudy with Light Snow 35 1.7 32 0 89 89 NW 15 24 29.78 1008 1 1.60934 0.02 0.508
1:52 pm 13:52 Cloudy with Light Snow 35 1.7 32 0 89 89 NW 15 24 29.75 1007 1 1.60934 0.03 0.762
2:23 pm 14:23 Windy with Snow Likely 35 1.7 31 -0.6 85 85 NNW 23 37 29.79 1009 1.5 2.41401 0.001 0.001
2:52 pm 14:52 Cloudy with Light Snow 34 1.1 31 -0.6 89 89 NW 18 30 29.76 1008 1.25 2.011675 0.001 0.001
3:28 pm 15:28 Windy with Snow Likely 34 1.1 30 -1.1 85 85 NW 20 31 29.79 1009 0.75 1.207005 0.02 0.508
3:44 pm 15:44 Cloudy with Light Snow 33 0.6 30 -1.1 89 89 NW 15 24 29.8 1009 0.75 1.207005 0.03 0.762
3:52 pm 15:52 Cloudy with Light Snow 33 0.6 30 -1.1 89 89 NW 16 26 29.77 1008 0.75 1.207005 0.04 1.016
3:55 pm 15:55 Windy with Snow Likely 33 0.6 30 -1.1 89 89 NW 20 31 29.8 1009 1 1.60934 0.001 0.001
4:09 pm 16:09 Cloudy with Light Snow 33 0.6 30 -1.1 89 89 NW 14 22 29.81 1010 1 1.60934 0.001 0.001
4:52 pm 16:52 Cloudy with Light Snow 33 0.6 30 -1.1 89 89 NW 15 24 29.79 1009 1 1.60934 0.01 0.254
5:31 pm 17:31 Cloudy with Light Snow 33 0.6 30 -1.1 89 89 WNW 15 24 29.82 1010 1 1.60934 0.01 0.254
5:52 pm 17:52 Cloudy with Light Snow 33 0.6 30 -1.1 89 89 WNW 14 22 29.8 1009 1 1.60934 0.03 0.762
6:30 pm 18:30 Cloudy with Light Snow 32 0 29 -1.7 88 88 WNW 17 28 29.85 1011 0.75 1.207005 0.03 0.762
6:52 pm 18:52 Windy with Snow Likely 32 0 29 -1.7 88 88 WNW 20 31 29.82 1010 0.75 1.207005 0.05 1.27
6:56 pm 18:56 Cloudy with Light Snow 32 0 28 -2.2 85 85 WNW 17 28 29.86 1011 1 1.60934 0.001 0.001
7:10 pm 19:10 Windy with Snow Likely 32 0 29 -1.7 88 88 WNW 22 35 29.86 1011 1 1.60934 0.001 0.001
7:52 pm 19:52 Cloudy with Light Snow 31 -0.6 28 -2.2 89 89 WNW 18 30 29.83 1010 1 1.60934 0.01 0.254
8:52 pm 20:52 Cloudy with Light Snow 31 -0.6 28 -2.2 89 89 WNW 17 28 29.84 1011 1 1.60934 0.03 0.762
9:34 pm 21:34 Cloudy with Light Snow 31 -0.6 28 -2.2 89 89 WNW 16 26 29.88 1012 1 1.60934 0.001 0.001
9:52 pm 21:52 Cloudy with Light Snow 31 -0.6 28 -2.2 89 89 WNW 17 28 29.85 1011 1 1.60934 0.01 0.254
10:52 pm 22:52 Cloudy with Light Snow 30 -1.1 27 -2.8 88 88 WNW 16 26 29.86 1011 1 1.60934 0.01 0.254
11:52 pm 23:52 Cloudy with Light Snow 30 -1.1 27 -2.8 88 88 WNW 17 28 29.86 1011 1 1.60934 0.01 0.254

Powered by AerisWeather